Regional Weather Roundup
Issued by NWS

Home | Current Version | Previous Version | Graphics & Text | Print | Product List | Glossary On
Versions: 1 2 3 4 5 6 7 8 9 10 11 12 13 14 15 16 17 18 19 20 21 22 23 24 25 26 27 28 29 30 31 32 33 34 35 36 37 38 39 40 41 42 43 44 45 46 47 48 49 50
000
ASUS43 KFSD 272302
RWRSD

WEATHER ROUNDUP FOR SOUTH DAKOTA
NATIONAL WEATHER SERVICE SIOUX FALLS SD
500 PM CST FRI FEB 27 2015

NOTE: "FAIR" INDICATES FEW OR NO CLOUDS BELOW 12,000 FEET WITH NO
SIGNIFICANT WEATHER AND/OR OBSTRUCTIONS TO VISIBILITY.


SDZ001>005-009-010-012>017-280000-
NORTHWEST AND NORTH CENTRAL SOUTH DAKOTA

CITY           SKY/WX    TMP DP  RH WIND       PRES   REMARKS
BUFFALO          N/A     26  10  50 S16       29.92F WCI  14
FAITH            N/A     26   2  35 SE20G28   30.07F WCI  12
MOBRIDGE       SUNNY     21   6  52 S17       30.20F WCI   7
$$

SDZ012>016-024>037-041>051-057-063-072>074-280000-
SOUTHWEST AND SOUTH CENTRAL SOUTH DAKOTA

CITY           SKY/WX    TMP DP  RH WIND       PRES   REMARKS
RAPID CTY ARPT CLOUDY    23  11  60 S25       30.02F WCI   7
PIERRE         SUNNY     26  -4  27 S17G25    30.23F WCI  13
CUSTER         CLOUDY    12   5  73 VRB5      29.87F WCI   4
ELLSWORTH AFB  CLOUDY    23  11  60 S23G35    29.99F WCI   7
PHILIP         CLOUDY    29   6  38 S15       30.13F WCI  18
PINE RIDGE     CLOUDY    23   8  52 S15G26    30.06F WCI  10
WINNER         FAIR      27  -6  23 S13       30.25F WCI  16
$$

SDZ004>011-016>023-039-040-280000-
NORTHEAST SOUTH DAKOTA

CITY           SKY/WX    TMP DP  RH WIND       PRES   REMARKS
ABERDEEN       SUNNY     14   3  61 S12       30.37F WCI   0
WATERTOWN      SUNNY     11  -1  58 S9        30.36F WCI  -2
SISSETON         N/A     15   0  51 SW9       30.41S WCI   3
$$

SDZ017-020-022-023-036>040-048>070-280000-
SOUTHEAST SOUTH DAKOTA

CITY           SKY/WX    TMP DP  RH WIND       PRES   REMARKS
SIOUX FALLS    SUNNY     14   2  58 SE8       30.43F WCI   3
HURON          SUNNY     20   2  45 SE9       30.36F WCI   9
MITCHELL       SUNNY     23  -1  35 S14       30.39F WCI  11
YANKTON        SUNNY     21   1  42 SE10      30.43F WCI  10
$$

ABBREVIATIONS USED IN REMARKS
   TC - TEMPERATURE IN CELSIUS
  WCI - WIND CHILL INDEX
   HX - HEAT INDEX
  VSB - VISIBILITY




USA.gov is the U.S. government's official web portal to all federal, state and local government web resources and services.